Location: Milevsko
(49.4500°N, 14.3670°E)
Time: 22:23:21
(UTC+01:00)

ISS - Pass Details

Date: 17 January 2022
Orbit: 413 x 422 km, 51.6° (Epoch: 19 January)

Event Time Altitude Azimuth Distance (km) Brightness Sun altitude
Rises 19:00:35 0° 210° (SSW) 2,337 0.5 -23.2°
Reaches altitude 10° 19:02:58 10° 194° (SSW) 1,479 -0.8 -23.6°
Enters shadow 19:03:13 11° 191° (S) 1,397 -1.0 -23.6°
